Lampedusa current weather conditions

sailwx.info

Wind from 230 at 11 knots

Air temperature 18.0° C
Dewpoint 13.0° C

Last reported at 2016-Feb-11 12:50 UTC.
Time now 2016-Feb-11 14:59 UTC

Location: N 35°30' E 012°37'.
View on Google Maps.

See reports from other nearby stations

  
Tides and Currents Weather Stations Pressure Air Temp Water Temp Dewpoint Dewpoint Depression Visibility Wind Speed Wind Dir Waves Ship Positions
date/time (UTC)wind fromknots sea level pressurealtimeterstation pressurevisibilityair tempwater tempwave heightnotes
2016-Feb-11 12:50 230 11 18.0
2016-Feb-11 11:50 220 12 18.0
2016-Feb-11 10:50 240 8 18.0
2016-Feb-11 09:50 220 12 17.0
2016-Feb-11 08:50 210 11 17.0
2016-Feb-11 07:50 210 10 16.0
2016-Feb-11 06:50 200 9 16.0
2016-Feb-11 05:50 200 10 16.0
2016-Feb-11 05:00 190 10 15.0
2016-Feb-10 20:50 300 4 16.0
2016-Feb-10 19:50 340 10 16.0
2016-Feb-10 18:50 320 11 16.0
2016-Feb-10 17:50 340 11 16.0
2016-Feb-10 16:50 290 10 5.418.0
2016-Feb-10 15:50 270 7 18.0
2016-Feb-10 14:50 250 10 18.0
2016-Feb-10 13:50 260 10 5.419.0
2016-Feb-10 12:50 260 13 18.0
2016-Feb-10 11:50 260 10 4.318.0
2016-Feb-10 10:50 250 14 4.317.0
2016-Feb-10 09:50 250 15 3.817.0
2016-Feb-10 08:50 260 16 3.817.0
2016-Feb-10 07:50 260 16 16.0
2016-Feb-10 06:50 260 16 16.0
2016-Feb-10 05:50 250 17 16.0
2016-Feb-10 04:57 250 17 gusting 27 16.0
2016-Feb-09 20:50 210 19 16.0
2016-Feb-09 19:50 210 18 16.0
2016-Feb-09 18:50 220 20 16.0
2016-Feb-09 17:50 220 18 16.0
2016-Feb-09 16:50 210 19 15.0
2016-Feb-09 15:50 210 15 16.0
2016-Feb-09 14:50 210 17 16.0